Regional Weather Roundup
Issued by NWS Little Rock, AR

Home | Current Version | Previous Version | Graphics & Text | Print | Product List | Glossary On
Versions: 1 2 3 4 5 6 7 8 9 10 11 12 13 14 15 16 17 18 19 20 21 22 23 24 25 26 27
000
ASUS44 KLZK 222005
RWRLZK

WEATHER ROUNDUP FOR ARKANSAS
NATIONAL WEATHER SERVICE LITTLE ROCK AR
300 PM CDT FRI JUL 22 2016

NOTE: "FAIR" INDICATES FEW OR NO CLOUDS BELOW 12,000 FEET WITH NO
SIGNIFICANT WEATHER AND/OR OBSTRUCTIONS TO VISIBILITY.

ARZ001-003-010-029-222100-
NORTHWEST ARKANSAS

CITY           SKY/WX    TMP DP  RH WIND       PRES   REMARKS
FAYETTEVILLE   SUNNY     93  73  52 S7        30.07F HX 102
FORT SMITH     SUNNY     98  68  37 CALM      30.01F HX 103
HARRISON       CLOUDY    92  74  55 VRB3      30.08F HX 101
BENTONVILLE    SUNNY     93  70  46 S6        30.09F HX  99
ROGERS         SUNNY     93  72  50 SW9       30.08F HX 101
SILOAM SPGS    SUNNY     95  70  43 W5        30.08F HX 101
HIGHFILL       SUNNY     94  74  52 SW7       30.07F HX 104
SPRINGDALE     MOSUNNY   93  70  46 SW6G13    30.09F HX  99
$$

ARZ004-005-016-222100-
NORTH CENTRAL ARKANSAS

CITY           SKY/WX    TMP DP  RH WIND       PRES   REMARKS
BATESVILLE     MOSUNNY   99  73  44 NW3       30.00F HX 109
FLIPPIN        SUNNY     97  72  44 N6        30.01F HX 105
MTN HOME       SUNNY     94  74  52 VRB3      30.04F HX 104
$$

ARZ040-041-222100-
WEST CENTRAL ARKANSAS

CITY           SKY/WX    TMP DP  RH WIND       PRES   REMARKS
MENA           MOSUNNY  100  68  34 CALM      30.05F HX 106
MOUNT IDA      MOSUNNY   97  72  44 VRB6      30.02F HX 105
$$

ARZ009-017-025-026-028-222100-
NORTHEAST ARKANSAS

CITY           SKY/WX    TMP DP  RH WIND       PRES   REMARKS
CORNING          N/A     95  77  55 CALM      29.99F HX 109
JONESBORO      PTSUNNY   98  74  45 E6        29.98F HX 109
NEWPORT        PTSUNNY   95  74  50 CALM      30.01F HX 105
WALNUT RIDGE     N/A     97  73  46 CALM      29.97F HX 107
BLYTHEVILLE    MOSUNNY   96  78  56 SW5       30.00F HX 112
$$

ARZ022-023-033-042-044-222100-
CENTRAL ARKANSAS

CITY           SKY/WX    TMP DP  RH WIND       PRES   REMARKS
LITTLE ROCK    MOSUNNY  103  72  36 N5        29.99F HX 113
N LITTLE ROCK    N/A     98  74  46 W3        29.96F HX 108
JACKSONVILLE   DRIZZLE   93  77  59 W10       30.00F HX 107
SEARCY         PTSUNNY   93  77  59 W5        30.02F HX 107
HOT SPRINGS    MOSUNNY  101  70  36 VRB5G17   30.02F HX 108
RUSSELLVILLE   SUNNY     97  71  42 W5        30.01F HX 104
$$

ARZ036-222100-
EAST ARKANSAS

CITY           SKY/WX    TMP DP  RH WIND       PRES   REMARKS
WEST MEMPHIS   SUNNY     95  76  53 NW5       30.00F HX 108
$$

ARZ050-053-066-070-073-222100-
SOUTHWEST ARKANSAS

CITY           SKY/WX    TMP DP  RH WIND       PRES   REMARKS
CAMDEN         CLOUDY   100  70  37 N3        30.00F HX 107
TEXARKANA      MOSUNNY  100  69  36 SW12      30.01F HX 106
EL DORADO      CLOUDY    99  74  44 N6        30.02F HX 110
DE QUEEN       SUNNY    101  71  38 W10G17    29.99F HX 109
$$

ARZ056-057-069-222100-
SOUTHEAST ARKANSAS

CITY           SKY/WX    TMP DP  RH WIND       PRES   REMARKS
PINE BLUFF     SUNNY     97  74  47 W5        30.00F HX 108
STUTTGART      SUNNY    100  75  44 N6        30.00F HX 114
MONTICELLO     CLOUDY    87  78  74 W6        30.01F THUNDER HX 100

$$






USA.gov is the U.S. government's official web portal to all federal, state and local government web resources and services.